Home   Weather   Graz   Past weeks

Flag for Austria Past Weather in Graz, Styria, Austria — Yesterday and Last 2 Weeks

Now
50 °F

Cool.


Feels Like: 50 °F
Forecast: 47 / 72 °F
Wind: 1 mph from North

Location: Graz-Thalerhof-Flughafen

Current Time: Sep 30, 2016 at 3:42:36 AM

Latest Report: Sep 30, 2016 at 2:50 AM


Visibility: 1 mi

Pressure: 30.09 "Hg

Humidity: 100%

Dew Point: 50 °F

Location of GrazLocation

Past Weather in Graz — Graph

°F

Graz Temperature Yesterday

Maximum temperature yesterday: 75 °F (at 2:50 PM)
Minimum temperature yesterday: 45 °F (at 6:50 AM)
Average temperature yesterday: 59 °F

High & Low Weather Summary for the Past Weeks

 TemperatureHumidityPressure
High81 °F (Sep 16, 2:20 PM)100% (Sep 15, 2:50 AM)30.42 "Hg (Sep 15, 2:50 AM)
Low41 °F (Sep 23, 5:50 AM)41% (Sep 28, 3:50 PM)29.80 "Hg (Sep 17, 4:20 AM)
Average59 °F79%30.10 "Hg
* Reported Sep 15 2:20 AM — Sep 30 2:20 AM, Graz, Weather by CustomWeather, © 2016

Note: Actual official high and low records may vary slightly from our data, if they occured in-between our weather recording intervals... More about our weather records

Advertising

Graz Weather History for the Previous 24 Hours

Scroll right to see more
 ConditionsComfort  
Time TempWeatherWind HumidityBarometerVisibility
2:20 AM
Fri, Sep 30
50 °FCool.2 mph94%30.09 "HgN/A
1:50 AM50 °FCool.2 mph100%30.09 "Hg6 mi
1:20 AM52 °FCool.3 mph100%30.09 "Hg4 mi
12:50 AM54 °FLight fog.1 mph94%30.09 "Hg0 mi
12:20 AM54 °FFog.2 mph94%30.09 "Hg4 mi
11:50 PM
Thu, Sep 29
54 °FRain. Overcast.2 mph94%30.09 "Hg6 mi
11:20 PM55 °FFog.2 mph94%30.09 "HgN/A
10:50 PM57 °FFog.2 mph88%30.09 "HgN/A
10:20 PM55 °FClear.1 mph94%30.09 "Hg10 mi
9:50 PM57 °FClear.1 mph88%30.09 "Hg10 mi
9:20 PM59 °FClear.1 mph88%30.12 "Hg10 mi
8:50 PM61 °FClear.2 mph83%30.12 "Hg10 mi
8:20 PM61 °FClear.6 mph83%30.09 "Hg10 mi
7:50 PM63 °FClear.3 mph83%30.12 "Hg10 mi
7:20 PM64 °FClear.1 mph78%30.12 "Hg10 mi
6:50 PM66 °FClear.1 mph73%30.12 "Hg10 mi
6:20 PM68 °FSunny.2 mph69%30.12 "Hg10 mi
5:50 PM70 °FSunny.5 mph64%30.12 "Hg10 mi
5:20 PM73 °FSunny.5 mph57%30.12 "Hg10 mi
4:50 PM73 °FSunny.5 mph57%30.15 "Hg10 mi
4:20 PM73 °FPassing clouds.5 mph53%30.15 "HgN/A
3:50 PM75 °FPassing clouds.3 mph44%30.15 "HgN/A
3:20 PM75 °FPassing clouds.3 mph41%30.18 "HgN/A
2:50 PM75 °FPassing clouds.3 mph41%30.18 "HgN/A
2:20 PM73 °FPassing clouds.3 mph47%30.21 "HgN/A
1:50 PM73 °FPassing clouds.5 mph41%30.21 "HgN/A
1:20 PM72 °FSunny.2 mph47%30.24 "Hg10 mi
12:50 PM70 °FSunny.2 mph57%30.24 "Hg10 mi
12:20 PM68 °FSunny.2 mph56%30.27 "Hg10 mi
11:50 AM66 °FSunny.2 mph68%30.27 "Hg10 mi
11:20 AM63 °FPassing clouds.3 mph68%30.27 "HgN/A
10:50 AM61 °FPassing clouds.3 mph72%30.30 "HgN/A
10:20 AM57 °FPassing clouds.3 mph82%30.30 "HgN/A
9:50 AM55 °FSunny.2 mph82%30.30 "Hg10 mi
9:20 AM52 °FSunny.2 mph94%30.30 "Hg10 mi
8:50 AM50 °FSunny.1 mph94%30.30 "Hg10 mi
8:20 AM48 °FPartly sunny.2 mph100%30.30 "Hg4 mi
7:50 AM46 °FPartly sunny.1 mph93%30.30 "Hg2 mi
7:20 AM46 °FPartly sunny.2 mph100%30.30 "Hg5 mi
6:50 AM45 °FPassing clouds.2 mph93%30.30 "Hg5 mi
6:20 AM46 °FCool.2 mph100%30.30 "Hg5 mi
5:50 AM46 °FPassing clouds.1 mph100%30.30 "Hg2 mi
5:20 AM46 °FCool.2 mph100%30.30 "Hg1 mi
4:50 AM48 °FFog.1 mph94%30.30 "Hg3 mi
4:20 AM46 °FCool.3 mph100%30.33 "Hg5 mi
3:50 AM48 °FFog.1 mph94%30.30 "Hg4 mi
3:20 AM48 °FFog.2 mph94%30.33 "Hg4 mi
Weather by CustomWeather, © 2016

See weather overviewHow to use our weather pages